Time,TemperatureF,DewpointF,PressureIn,WindDirection,WindDirectionDegrees,WindSpeedMPH,WindSpeedGustMPH,Humidity,HourlyPrecipIn,Conditions,Clouds,dailyrainin,SolarRadiationWatts/m^2,SoftwareType,DateUTC
2013-03-31 00:00:00,36.3,33.4,29.78,SSW,200,3.0,3.0,89,0.00,,,0.00,0.00,VWS V14.01,2013-03-31 05:00:00,
2013-03-31 00:05:00,36.1,33.2,29.78,SSW,200,3.0,3.0,89,0.00,,,0.00,0.00,VWS V14.01,2013-03-31 05:05:00,
2013-03-31 00:10:00,36.0,33.1,29.78,SSW,200,2.0,3.0,89,0.00,,,0.00,0.00,VWS V14.01,2013-03-31 05:10:00,
2013-03-31 00:15:00,35.9,33.0,29.78,SSW,200,2.0,4.0,89,0.00,,,0.00,0.00,VWS V14.01,2013-03-31 05:15:00,
2013-03-31 00:20:00,35.9,33.0,29.78,SSW,200,2.0,4.0,89,0.00,,,0.00,0.00,VWS V14.01,2013-03-31 05:20:00,
2013-03-31 00:25:00,35.9,33.0,29.78,SSW,200,2.0,4.0,89,0.00,,,0.00,0.00,VWS V14.01,2013-03-31 05:25:00,
2013-03-31 00:30:00,35.9,33.0,29.77,SSW,200,1.0,2.0,89,0.00,,,0.00,0.00,VWS V14.01,2013-03-31 05:30:00,
2013-03-31 00:35:00,36.0,33.1,29.77,SSW,200,2.0,3.0,89,0.00,,,0.00,0.00,VWS V14.01,2013-03-31 05:35:00,
2013-03-31 00:40:00,36.0,33.1,29.77,SSW,200,2.0,3.0,89,0.00,,,0.00,0.00,VWS V14.01,2013-03-31 05:40:00,
2013-03-31 00:45:00,36.0,33.1,29.77,SSW,200,0.0,3.0,89,0.00,,,0.00,0.00,VWS V14.01,2013-03-31 05:45:00,
2013-03-31 00:50:00,36.0,33.1,29.77,SSW,200,1.0,3.0,89,0.00,,,0.00,0.00,VWS V14.01,2013-03-31 05:50:00,
2013-03-31 00:55:00,35.9,33.0,29.77,SSW,200,1.0,3.0,89,0.00,,,0.00,0.00,VWS V14.01,2013-03-31 05:55:00,
2013-03-31 01:00:00,35.8,32.9,29.77,SSW,200,1.0,2.0,89,0.00,,,0.00,0.00,VWS V14.01,2013-03-31 06:00:00,
2013-03-31 01:05:00,35.8,32.9,29.77,SSW,200,1.0,2.0,89,0.00,,,0.00,0.00,VWS V14.01,2013-03-31 06:05:00,
2013-03-31 01:10:00,35.6,32.7,29.77,SW,224,2.0,4.0,89,0.00,,,0.00,0.00,VWS V14.01,2013-03-31 06:10:00,
2013-03-31 01:15:00,35.4,32.5,29.77,SW,224,2.0,4.0,89,0.00,,,0.00,0.00,VWS V14.01,2013-03-31 06:15:00,
2013-03-31 01:20:00,35.1,32.2,29.77,SW,224,2.0,4.0,89,0.00,,,0.00,0.00,VWS V14.01,2013-03-31 06:20:00,
2013-03-31 01:25:00,34.9,32.0,29.77,West,267,1.0,4.0,89,0.00,,,0.00,0.00,VWS V14.01,2013-03-31 06:25:00,
2013-03-31 01:30:00,34.9,32.0,29.77,West,267,1.0,4.0,89,0.00,,,0.00,0.00,VWS V14.01,2013-03-31 06:30:00,
2013-03-31 01:35:00,35.0,32.1,29.77,West,271,2.0,4.0,89,0.00,,,0.00,0.00,VWS V14.01,2013-03-31 06:35:00,
2013-03-31 01:40:00,35.1,32.2,29.76,West,271,1.0,4.0,89,0.00,,,0.00,0.00,VWS V14.01,2013-03-31 06:40:00,
2013-03-31 01:45:00,35.0,32.1,29.77,West,271,3.0,4.0,89,0.00,,,0.00,0.00,VWS V14.01,2013-03-31 06:45:00,
2013-03-31 01:50:00,35.0,32.1,29.76,West,271,3.0,4.0,89,0.00,,,0.00,0.00,VWS V14.01,2013-03-31 06:50:00,
2013-03-31 01:55:00,34.9,32.0,29.76,West,271,0.0,4.0,89,0.00,,,0.00,0.00,VWS V14.01,2013-03-31 06:55:00,
2013-03-31 02:00:00,34.9,32.0,29.76,West,271,1.0,4.0,89,0.00,,,0.00,0.00,VWS V14.01,2013-03-31 07:00:00,
2013-03-31 02:05:00,34.8,31.9,29.76,West,271,2.0,4.0,89,0.00,,,0.00,0.00,VWS V14.01,2013-03-31 07:05:00,
2013-03-31 02:10:00,34.7,31.8,29.76,West,273,3.0,4.0,89,0.00,,,0.00,0.00,VWS V14.01,2013-03-31 07:10:00,
2013-03-31 02:15:00,34.7,31.8,29.76,West,273,0.0,4.0,89,0.00,,,0.00,0.00,VWS V14.01,2013-03-31 07:15:00,
2013-03-31 02:20:00,34.6,31.7,29.76,West,273,1.0,4.0,89,0.00,,,0.00,0.00,VWS V14.01,2013-03-31 07:20:00,
2013-03-31 02:25:00,34.5,31.6,29.76,West,273,0.0,4.0,89,0.00,,,0.00,0.00,VWS V14.01,2013-03-31 07:25:00,
2013-03-31 02:30:00,34.5,31.6,29.76,West,273,2.0,3.0,89,0.00,,,0.00,0.00,VWS V14.01,2013-03-31 07:30:00,
2013-03-31 02:35:00,34.5,31.9,29.76,West,273,0.0,3.0,90,0.00,,,0.00,0.00,VWS V14.01,2013-03-31 07:35:00,
2013-03-31 02:40:00,34.4,31.8,29.75,West,273,2.0,5.0,90,0.00,,,0.00,0.00,VWS V14.01,2013-03-31 07:40:00,
2013-03-31 02:45:00,34.3,31.7,29.75,West,273,3.0,5.0,90,0.00,,,0.00,0.00,VWS V14.01,2013-03-31 07:45:00,
2013-03-31 02:50:00,34.3,31.7,29.75,West,272,1.0,5.0,90,0.00,,,0.00,0.00,VWS V14.01,2013-03-31 07:50:00,
2013-03-31 02:55:00,34.1,31.5,29.75,West,273,3.0,6.0,90,0.00,,,0.00,0.00,VWS V14.01,2013-03-31 07:55:00,
2013-03-31 03:01:00,34.1,31.5,29.76,West,275,5.0,5.0,90,0.00,,,0.00,0.00,VWS V14.01,2013-03-31 08:01:00,
2013-03-31 03:06:00,34.1,31.5,29.75,West,269,3.0,6.0,90,0.00,,,0.00,0.00,VWS V14.01,2013-03-31 08:06:00,
2013-03-31 03:11:00,34.2,31.6,29.75,WNW,283,4.0,6.0,90,0.00,,,0.00,0.00,VWS V14.01,2013-03-31 08:11:00,
2013-03-31 03:16:00,34.2,31.6,29.75,West,271,4.0,6.0,90,0.00,,,0.00,0.00,VWS V14.01,2013-03-31 08:16:00,
2013-03-31 03:21:00,34.2,31.6,29.75,West,279,1.0,6.0,90,0.00,,,0.00,0.00,VWS V14.01,2013-03-31 08:21:00,
2013-03-31 03:26:00,34.1,31.5,29.75,West,277,4.0,6.0,90,0.00,,,0.00,0.00,VWS V14.01,2013-03-31 08:26:00,
2013-03-31 03:31:00,33.8,31.5,29.75,West,277,2.0,4.0,91,0.00,,,0.00,0.00,VWS V14.01,2013-03-31 08:31:00,
2013-03-31 03:36:00,33.8,31.5,29.75,West,279,3.0,5.0,91,0.00,,,0.00,0.00,VWS V14.01,2013-03-31 08:36:00,
2013-03-31 03:41:00,33.7,31.1,29.75,West,279,3.0,5.0,90,0.00,,,0.00,0.00,VWS V14.01,2013-03-31 08:41:00,
2013-03-31 03:46:00,33.7,31.1,29.75,West,279,2.0,5.0,90,0.00,,,0.00,0.00,VWS V14.01,2013-03-31 08:46:00,
2013-03-31 03:51:00,33.7,31.1,29.74,West,279,1.0,5.0,90,0.00,,,0.00,0.00,VWS V14.01,2013-03-31 08:51:00,
2013-03-31 03:56:00,33.8,31.5,29.74,West,279,1.0,5.0,91,0.00,,,0.00,0.00,VWS V14.01,2013-03-31 08:56:00,
2013-03-31 04:01:00,33.8,31.5,29.74,West,279,1.0,3.0,91,0.00,,,0.00,0.00,VWS V14.01,2013-03-31 09:01:00,
2013-03-31 04:06:00,33.6,31.3,29.73,West,279,1.0,3.0,91,0.00,,,0.00,0.00,VWS V14.01,2013-03-31 09:06:00,
2013-03-31 04:11:00,33.4,31.1,29.73,West,279,0.0,3.0,91,0.00,,,0.00,0.00,VWS V14.01,2013-03-31 09:11:00,
2013-03-31 04:16:00,33.5,30.9,29.73,West,279,5.0,6.0,90,0.00,,,0.00,0.00,VWS V14.01,2013-03-31 09:16:00,
2013-03-31 04:21:00,33.5,30.9,29.74,West,266,3.0,6.0,90,0.00,,,0.00,0.00,VWS V14.01,2013-03-31 09:21:00,
2013-03-31 04:26:00,33.7,31.1,29.74,West,273,2.0,7.0,90,0.00,,,0.00,0.00,VWS V14.01,2013-03-31 09:26:00,
2013-03-31 04:31:00,33.7,31.1,29.74,WSW,249,3.0,5.0,90,0.00,,,0.00,0.00,VWS V14.01,2013-03-31 09:31:00,
2013-03-31 04:36:00,33.8,31.5,29.73,WSW,257,5.0,6.0,91,0.00,,,0.00,0.00,VWS V14.01,2013-03-31 09:36:00,
2013-03-31 04:41:00,33.9,31.6,29.74,WSW,251,5.0,6.0,91,0.00,,,0.00,0.00,VWS V14.01,2013-03-31 09:41:00,
2013-03-31 04:46:00,33.6,31.0,29.74,West,275,3.0,9.0,90,0.00,,,0.00,0.00,VWS V14.01,2013-03-31 09:46:00,
2013-03-31 04:51:00,33.6,31.0,29.74,WSW,248,4.0,9.0,90,0.00,,,0.00,0.00,VWS V14.01,2013-03-31 09:51:00,
2013-03-31 04:56:00,33.5,30.9,29.74,WSW,257,1.0,9.0,90,0.00,,,0.00,0.00,VWS V14.01,2013-03-31 09:56:00,
2013-03-31 05:02:00,33.5,30.9,29.74,West,274,3.0,8.0,90,0.00,,,0.00,0.00,VWS V14.01,2013-03-31 10:02:00,
2013-03-31 05:07:00,33.5,30.9,29.73,West,271,5.0,8.0,90,0.00,,,0.00,0.00,VWS V14.01,2013-03-31 10:07:00,
2013-03-31 05:12:00,33.7,31.1,29.73,West,281,2.0,8.0,90,0.00,,,0.00,0.00,VWS V14.01,2013-03-31 10:12:00,
2013-03-31 05:17:00,33.7,31.1,29.73,West,277,4.0,8.0,90,0.00,,,0.00,0.00,VWS V14.01,2013-03-31 10:17:00,
2013-03-31 05:22:00,33.7,31.1,29.72,West,276,3.0,8.0,90,0.00,,,0.00,0.00,VWS V14.01,2013-03-31 10:22:00,
2013-03-31 05:27:00,33.6,31.0,29.72,West,280,2.0,8.0,90,0.00,,,0.00,0.00,VWS V14.01,2013-03-31 10:27:00,
2013-03-31 05:32:00,33.5,30.9,29.72,West,273,2.0,4.0,90,0.00,,,0.00,0.00,VWS V14.01,2013-03-31 10:32:00,
2013-03-31 05:37:00,33.5,30.9,29.72,West,273,2.0,4.0,90,0.00,,,0.00,0.00,VWS V14.01,2013-03-31 10:37:00,
2013-03-31 05:42:00,33.3,30.7,29.72,WNW,290,2.0,4.0,90,0.00,,,0.00,0.00,VWS V14.01,2013-03-31 10:42:00,
2013-03-31 05:47:00,33.2,30.6,29.72,WNW,290,1.0,4.0,90,0.00,,,0.00,0.00,VWS V14.01,2013-03-31 10:47:00,
2013-03-31 05:52:00,33.0,30.4,29.72,WNW,290,3.0,4.0,90,0.00,,,0.00,0.00,VWS V14.01,2013-03-31 10:52:00,
2013-03-31 05:57:00,32.8,30.2,29.72,West,280,2.0,4.0,90,0.00,,,0.00,0.00,VWS V14.01,2013-03-31 10:57:00,
2013-03-31 06:02:00,32.8,30.2,29.72,West,263,2.0,4.0,90,0.00,,,0.00,0.00,VWS V14.01,2013-03-31 11:02:00,
2013-03-31 06:07:00,32.5,29.9,29.72,WSW,240,5.0,5.0,90,0.00,,,0.00,0.00,VWS V14.01,2013-03-31 11:07:00,
2013-03-31 06:12:00,32.5,29.9,29.72,West,260,7.0,7.0,90,0.00,,,0.00,0.00,VWS V14.01,2013-03-31 11:12:00,
2013-03-31 06:17:00,32.5,29.9,29.73,West,261,5.0,8.0,90,0.00,,,0.00,0.00,VWS V14.01,2013-03-31 11:17:00,
2013-03-31 06:22:00,32.4,29.8,29.73,West,274,7.0,10.0,90,0.00,,,0.00,0.00,VWS V14.01,2013-03-31 11:22:00,
2013-03-31 06:27:00,32.3,29.7,29.73,West,259,7.0,10.0,90,0.00,,,0.00,0.00,VWS V14.01,2013-03-31 11:27:00,
2013-03-31 06:32:00,32.3,29.7,29.72,SW,232,4.0,7.0,90,0.00,,,0.00,0.00,VWS V14.01,2013-03-31 11:32:00,
2013-03-31 06:37:00,32.1,29.5,29.73,WSW,244,6.0,7.0,90,0.00,,,0.00,0.00,VWS V14.01,2013-03-31 11:37:00,
2013-03-31 06:42:00,32.0,29.4,29.73,WSW,252,6.0,8.0,90,0.00,,,0.00,0.00,VWS V14.01,2013-03-31 11:42:00,
2013-03-31 06:47:00,31.7,29.1,29.73,WSW,240,4.0,8.0,90,0.00,,,0.00,0.00,VWS V14.01,2013-03-31 11:47:00,
2013-03-31 06:52:00,31.5,28.9,29.73,WSW,252,4.0,9.0,90,0.00,,,0.00,5.00,VWS V14.01,2013-03-31 11:52:00,
2013-03-31 06:57:00,31.4,28.8,29.72,WSW,257,5.0,9.0,90,0.00,,,0.00,9.00,VWS V14.01,2013-03-31 11:57:00,
2013-03-31 07:02:00,31.3,28.7,29.72,SW,232,1.0,7.0,90,0.00,,,0.00,12.00,VWS V14.01,2013-03-31 12:02:00,
2013-03-31 07:08:00,31.1,28.5,29.72,WSW,244,6.0,7.0,90,0.00,,,0.00,14.00,VWS V14.01,2013-03-31 12:08:00,
2013-03-31 07:13:00,31.0,28.4,29.72,WSW,240,5.0,8.0,90,0.00,,,0.00,16.00,VWS V14.01,2013-03-31 12:13:00,
2013-03-31 07:18:00,30.9,28.6,29.72,SW,228,4.0,8.0,91,0.00,,,0.00,18.00,VWS V14.01,2013-03-31 12:18:00,
2013-03-31 07:23:00,30.9,28.6,29.72,WSW,242,3.0,8.0,91,0.00,,,0.00,21.00,VWS V14.01,2013-03-31 12:23:00,
2013-03-31 07:28:00,31.1,28.8,29.72,WSW,257,5.0,8.0,91,0.00,,,0.00,25.00,VWS V14.01,2013-03-31 12:28:00,
2013-03-31 07:33:00,31.0,28.7,29.72,WSW,254,5.0,6.0,91,0.00,,,0.00,30.00,VWS V14.01,2013-03-31 12:33:00,
2013-03-31 07:38:00,30.9,28.6,29.73,WSW,252,5.0,7.0,91,0.00,,,0.00,33.00,VWS V14.01,2013-03-31 12:38:00,
2013-03-31 07:43:00,31.0,28.7,29.72,SW,236,3.0,7.0,91,0.00,,,0.00,79.00,VWS V14.01,2013-03-31 12:43:00,
2013-03-31 07:48:00,31.2,28.9,29.73,WSW,237,6.0,8.0,91,0.00,,,0.00,74.00,VWS V14.01,2013-03-31 12:48:00,
2013-03-31 07:53:00,31.4,29.1,29.72,SW,227,6.0,8.0,91,0.00,,,0.00,72.00,VWS V14.01,2013-03-31 12:53:00,
2013-03-31 07:58:00,31.5,29.2,29.72,WSW,253,2.0,8.0,91,0.00,,,0.00,70.00,VWS V14.01,2013-03-31 12:58:00,
2013-03-31 08:03:00,31.6,29.3,29.72,WSW,237,5.0,10.0,91,0.00,,,0.00,67.00,VWS V14.01,2013-03-31 13:03:00,
2013-03-31 08:08:00,31.8,29.2,29.72,SW,225,6.0,10.0,90,0.00,,,0.00,56.00,VWS V14.01,2013-03-31 13:08:00,
2013-03-31 08:13:00,32.0,29.7,29.72,WNW,288,7.0,11.0,91,0.00,,,0.00,76.00,VWS V14.01,2013-03-31 13:13:00,
2013-03-31 08:18:00,32.3,29.7,29.72,West,269,8.0,12.0,90,0.00,,,0.00,97.00,VWS V14.01,2013-03-31 13:18:00,
2013-03-31 08:23:00,32.5,29.9,29.73,West,277,5.0,12.0,90,0.00,,,0.00,93.00,VWS V14.01,2013-03-31 13:23:00,
2013-03-31 08:28:00,32.6,30.0,29.73,WNW,284,7.0,13.0,90,0.00,,,0.00,144.00,VWS V14.01,2013-03-31 13:28:00,
2013-03-31 08:33:00,32.8,30.2,29.73,West,275,6.0,14.0,90,0.00,,,0.00,84.00,VWS V14.01,2013-03-31 13:33:00,
2013-03-31 08:38:00,32.8,30.2,29.73,West,273,7.0,14.0,90,0.00,,,0.00,81.00,VWS V14.01,2013-03-31 13:38:00,
2013-03-31 08:43:00,32.9,30.3,29.73,West,273,7.0,14.0,90,0.00,,,0.00,100.00,VWS V14.01,2013-03-31 13:43:00,
2013-03-31 08:48:00,32.9,30.0,29.73,West,261,12.0,15.0,89,0.00,,,0.00,130.00,VWS V14.01,2013-03-31 13:48:00,
2013-03-31 08:53:00,33.1,30.2,29.72,West,263,8.0,15.0,89,0.00,,,0.00,200.00,VWS V14.01,2013-03-31 13:53:00,
2013-03-31 08:58:00,33.2,30.3,29.72,West,279,8.0,15.0,89,0.00,,,0.00,172.00,VWS V14.01,2013-03-31 13:58:00,
2013-03-31 09:03:00,33.2,30.3,29.72,West,281,9.0,15.0,89,0.00,,,0.00,155.00,VWS V14.01,2013-03-31 14:03:00,
2013-03-31 09:08:00,33.3,30.4,29.72,West,271,8.0,15.0,89,0.00,,,0.00,200.00,VWS V14.01,2013-03-31 14:08:00,
2013-03-31 09:13:00,33.4,30.5,29.72,WNW,284,5.0,15.0,89,0.00,,,0.00,178.00,VWS V14.01,2013-03-31 14:13:00,
2013-03-31 09:18:00,33.5,30.6,29.72,West,274,4.0,15.0,89,0.00,,,0.00,139.00,VWS V14.01,2013-03-31 14:18:00,
2013-03-31 09:23:00,33.5,30.6,29.72,WNW,287,5.0,15.0,89,0.00,,,0.00,130.00,VWS V14.01,2013-03-31 14:23:00,
2013-03-31 09:28:00,33.5,30.6,29.72,WNW,289,8.0,15.0,89,0.00,,,0.00,83.00,VWS V14.01,2013-03-31 14:28:00,
2013-03-31 09:33:00,33.5,30.6,29.72,West,273,6.0,11.0,89,0.00,,,0.00,67.00,VWS V14.01,2013-03-31 14:33:00,
2013-03-31 09:38:00,33.6,30.7,29.72,West,273,7.0,11.0,89,0.00,,,0.00,86.00,VWS V14.01,2013-03-31 14:38:00,
2013-03-31 09:43:00,33.7,30.8,29.72,WNW,283,6.0,11.0,89,0.00,,,0.00,109.00,VWS V14.01,2013-03-31 14:43:00,
2013-03-31 09:48:00,33.9,30.7,29.72,NW,304,8.0,12.0,88,0.00,,,0.00,116.00,VWS V14.01,2013-03-31 14:48:00,
2013-03-31 09:53:00,34.0,30.8,29.72,West,275,8.0,12.0,88,0.00,,,0.00,113.00,VWS V14.01,2013-03-31 14:53:00,
2013-03-31 09:58:00,34.2,31.0,29.72,West,275,9.0,16.0,88,0.00,,,0.00,109.00,VWS V14.01,2013-03-31 14:58:00,
2013-03-31 10:03:00,34.3,31.1,29.72,West,280,9.0,13.0,88,0.00,,,0.00,105.00,VWS V14.01,2013-03-31 15:03:00,
2013-03-31 10:08:00,34.4,31.2,29.72,WNW,297,5.0,13.0,88,0.00,,,0.00,70.00,VWS V14.01,2013-03-31 15:08:00,
2013-03-31 10:13:00,34.5,31.3,29.72,WNW,290,8.0,13.0,88,0.00,,,0.00,72.00,VWS V14.01,2013-03-31 15:13:00,
2013-03-31 10:18:00,34.4,31.5,29.72,NW,310,4.0,14.0,89,0.00,,,0.00,56.00,VWS V14.01,2013-03-31 15:18:00,
2013-03-31 10:23:00,34.4,31.5,29.72,WNW,293,6.0,14.0,89,0.00,,,0.00,90.00,VWS V14.01,2013-03-31 15:23:00,
2013-03-31 10:28:00,34.4,31.5,29.72,WNW,298,10.0,14.0,89,0.00,,,0.00,79.00,VWS V14.01,2013-03-31 15:28:00,
2013-03-31 10:33:00,34.4,31.5,29.72,WNW,295,6.0,10.0,89,0.00,,,0.00,77.00,VWS V14.01,2013-03-31 15:33:00,
2013-03-31 10:38:00,34.5,31.6,29.72,WNW,296,14.0,15.0,89,0.00,,,0.00,113.00,VWS V14.01,2013-03-31 15:38:00,
2013-03-31 10:43:00,34.6,31.7,29.72,WNW,299,6.0,15.0,89,0.00,,,0.00,107.00,VWS V14.01,2013-03-31 15:43:00,
2013-03-31 10:48:00,34.6,31.7,29.73,West,275,6.0,15.0,89,0.00,,,0.00,125.00,VWS V14.01,2013-03-31 15:48:00,
2013-03-31 10:53:00,34.7,31.8,29.73,WNW,297,7.0,15.0,89,0.00,,,0.00,102.00,VWS V14.01,2013-03-31 15:53:00,
2013-03-31 10:58:00,34.8,31.9,29.73,West,279,11.0,15.0,89,0.00,,,0.00,134.00,VWS V14.01,2013-03-31 15:58:00,
2013-03-31 11:03:00,34.9,31.7,29.73,NW,307,11.0,16.0,88,0.00,,,0.00,114.00,VWS V14.01,2013-03-31 16:03:00,
2013-03-31 11:08:00,35.0,31.8,29.73,West,281,10.0,16.0,88,0.00,,,0.00,88.00,VWS V14.01,2013-03-31 16:08:00,
2013-03-31 11:13:00,35.0,31.8,29.73,WNW,283,6.0,16.0,88,0.00,,,0.00,88.00,VWS V14.01,2013-03-31 16:13:00,
2013-03-31 11:18:00,35.0,31.8,29.73,WNW,290,11.0,16.0,88,0.00,,,0.00,65.00,VWS V14.01,2013-03-31 16:18:00,
2013-03-31 11:23:00,35.0,31.8,29.73,WNW,293,10.0,16.0,88,0.00,,,0.00,60.00,VWS V14.01,2013-03-31 16:23:00,
2013-03-31 11:28:00,34.9,31.7,29.73,WNW,288,5.0,16.0,88,0.00,,,0.00,60.00,VWS V14.01,2013-03-31 16:28:00,
2013-03-31 11:33:00,34.9,31.7,29.73,NW,315,12.0,14.0,88,0.00,,,0.00,171.00,VWS V14.01,2013-03-31 16:33:00,
2013-03-31 11:38:00,35.0,31.8,29.73,WNW,294,5.0,14.0,88,0.00,,,0.00,130.00,VWS V14.01,2013-03-31 16:38:00,
2013-03-31 11:43:00,35.1,31.9,29.73,NW,308,5.0,14.0,88,0.00,,,0.00,104.00,VWS V14.01,2013-03-31 16:43:00,
2013-03-31 11:48:00,35.2,32.0,29.73,WNW,297,9.0,14.0,88,0.00,,,0.00,229.00,VWS V14.01,2013-03-31 16:48:00,
2013-03-31 11:53:00,35.5,32.3,29.73,NW,317,4.0,14.0,88,0.00,,,0.00,406.00,VWS V14.01,2013-03-31 16:53:00,
2013-03-31 11:58:00,35.8,32.3,29.73,NW,309,3.0,14.0,87,0.00,,,0.00,267.00,VWS V14.01,2013-03-31 16:58:00,
2013-03-31 12:03:00,36.0,32.2,29.73,WNW,285,8.0,12.0,86,0.00,,OVC013,0.00,325.00,VWS V14.01,2013-03-31 17:03:00,
2013-03-31 12:09:00,36.2,32.1,29.73,WNW,298,10.0,14.0,85,0.00,,OVC013,0.00,578.00,VWS V14.01,2013-03-31 17:09:00,
2013-03-31 12:14:00,37.0,32.3,29.73,NW,319,11.0,18.0,83,0.00,,OVC013,0.00,795.00,VWS V14.01,2013-03-31 17:14:00,
2013-03-31 12:19:00,37.1,32.1,29.73,WNW,288,12.0,18.0,82,0.00,,OVC013,0.00,229.00,VWS V14.01,2013-03-31 17:19:00,
2013-03-31 12:24:00,37.2,32.2,29.73,NW,317,10.0,18.0,82,0.00,,,0.00,301.00,VWS V14.01,2013-03-31 17:24:00,
2013-03-31 12:29:00,37.5,32.2,29.73,WNW,294,10.0,18.0,81,0.00,,,0.00,877.00,VWS V14.01,2013-03-31 17:29:00,
2013-03-31 12:34:00,37.8,31.9,29.73,NW,319,14.0,15.0,79,0.00,,,0.00,798.00,VWS V14.01,2013-03-31 17:34:00,
2013-03-31 12:39:00,38.2,32.0,29.72,West,265,13.0,17.0,78,0.00,,,0.00,677.00,VWS V14.01,2013-03-31 17:39:00,
2013-03-31 12:44:00,38.0,31.1,29.72,West,281,6.0,17.0,76,0.00,,,0.00,383.00,VWS V14.01,2013-03-31 17:44:00,
2013-03-31 12:49:00,38.1,31.2,29.72,WNW,283,10.0,17.0,76,0.00,,,0.00,425.00,VWS V14.01,2013-03-31 17:49:00,
2013-03-31 12:54:00,37.9,31.0,29.73,West,273,7.0,17.0,76,0.00,,,0.00,302.00,VWS V14.01,2013-03-31 17:54:00,
2013-03-31 12:59:00,37.6,31.1,29.73,WNW,289,18.0,21.0,77,0.00,,,0.00,309.00,VWS V14.01,2013-03-31 17:59:00,
2013-03-31 13:04:00,36.5,31.2,29.73,WNW,291,16.0,21.0,81,0.00,,,0.00,227.00,VWS V14.01,2013-03-31 18:04:00,
2013-03-31 13:09:00,35.7,31.0,29.73,West,268,8.0,22.0,83,0.00,,,0.00,297.00,VWS V14.01,2013-03-31 18:09:00,
2013-03-31 13:14:00,35.7,30.8,29.73,WNW,286,8.0,22.0,82,0.00,,,0.00,993.00,VWS V14.01,2013-03-31 18:14:00,
2013-03-31 13:19:00,36.6,31.0,29.74,NW,313,9.0,22.0,80,0.00,,,0.00,911.00,VWS V14.01,2013-03-31 18:19:00,
2013-03-31 13:24:00,37.3,31.1,29.74,NW,306,8.0,22.0,78,0.00,,,0.00,1188.00,VWS V14.01,2013-03-31 18:24:00,
2013-03-31 13:29:00,37.6,30.1,29.74,NW,325,2.0,22.0,74,0.00,,,0.00,181.00,VWS V14.01,2013-03-31 18:29:00,
2013-03-31 13:34:00,37.4,29.9,29.74,WNW,288,9.0,13.0,74,0.00,,,0.00,195.00,VWS V14.01,2013-03-31 18:34:00,
2013-03-31 13:39:00,37.2,29.7,29.74,North,360,2.0,18.0,74,0.00,,,0.00,148.00,VWS V14.01,2013-03-31 18:39:00,
2013-03-31 13:44:00,37.1,28.6,29.74,NNW,346,7.0,18.0,71,0.00,,,0.00,223.00,VWS V14.01,2013-03-31 18:44:00,
2013-03-31 13:49:00,37.3,27.4,29.74,NNE,12,9.0,19.0,67,0.00,,,0.00,374.00,VWS V14.01,2013-03-31 18:49:00,
2013-03-31 13:54:00,37.8,26.7,29.74,NW,320,16.0,19.0,64,0.00,,,0.00,401.00,VWS V14.01,2013-03-31 18:54:00,
2013-03-31 13:59:00,38.7,26.8,29.74,NNW,340,5.0,21.0,62,0.00,,,0.00,1005.00,VWS V14.01,2013-03-31 18:59:00,
2013-03-31 14:04:00,39.6,25.6,29.75,WNW,298,18.0,23.0,57,0.00,,BKN055,0.00,984.00,VWS V14.01,2013-03-31 19:04:00,
2013-03-31 14:09:00,39.4,25.0,29.75,West,268,22.0,23.0,56,0.00,,BKN055,0.00,893.00,VWS V14.01,2013-03-31 19:09:00,
2013-03-31 14:14:00,39.0,24.2,29.75,NW,308,10.0,23.0,55,0.00,,BKN055,0.00,863.00,VWS V14.01,2013-03-31 19:14:00,
2013-03-31 14:19:00,39.3,24.9,29.75,NNW,342,6.0,23.0,56,0.00,,BKN055,0.00,865.00,VWS V14.01,2013-03-31 19:19:00,
2013-03-31 14:24:00,39.3,23.2,29.75,WNW,292,12.0,23.0,52,0.00,,BKN055,0.00,802.00,VWS V14.01,2013-03-31 19:24:00,
2013-03-31 14:29:00,38.9,22.3,29.75,NNW,343,10.0,23.0,51,0.00,,BKN055,0.00,810.00,VWS V14.01,2013-03-31 19:29:00,
2013-03-31 14:34:00,39.3,21.8,29.75,NW,323,8.0,18.0,49,0.00,,BKN055,0.00,807.00,VWS V14.01,2013-03-31 19:34:00,
2013-03-31 14:39:00,39.1,21.6,29.75,NNW,342,7.0,21.0,49,0.00,,BKN055,0.00,798.00,VWS V14.01,2013-03-31 19:39:00,
2013-03-31 14:44:00,39.1,20.1,29.76,WNW,293,25.0,26.0,46,0.00,,BKN055,0.00,780.00,VWS V14.01,2013-03-31 19:44:00,
2013-03-31 14:49:00,38.4,17.9,29.76,WNW,303,19.0,26.0,43,0.00,,BKN055,0.00,777.00,VWS V14.01,2013-03-31 19:49:00,
2013-03-31 14:54:00,38.6,18.0,29.76,North,5,13.0,26.0,43,0.00,,BKN055,0.00,770.00,VWS V14.01,2013-03-31 19:54:00,
2013-03-31 14:59:00,38.5,18.0,29.77,NNW,336,5.0,26.0,43,0.00,,BKN055,0.00,761.00,VWS V14.01,2013-03-31 19:59:00,
2013-03-31 15:04:00,38.3,17.8,29.77,NNW,338,11.0,22.0,43,0.00,,SCT050,0.00,751.00,VWS V14.01,2013-03-31 20:04:00,
2013-03-31 15:09:00,38.2,18.2,29.77,NE,36,2.0,22.0,44,0.00,,SCT050,0.00,744.00,VWS V14.01,2013-03-31 20:09:00,
2013-03-31 15:14:00,38.4,19.9,29.77,NW,308,10.0,22.0,47,0.00,,SCT050,0.00,737.00,VWS V14.01,2013-03-31 20:14:00,
2013-03-31 15:19:00,38.7,19.2,29.77,NW,321,17.0,22.0,45,0.00,,SCT050,0.00,726.00,VWS V14.01,2013-03-31 20:19:00,
2013-03-31 15:24:00,38.7,19.7,29.77,NW,306,13.0,22.0,46,0.00,,SCT050,0.00,714.00,VWS V14.01,2013-03-31 20:24:00,
2013-03-31 15:29:00,38.3,19.9,29.77,WNW,300,15.0,22.0,47,0.00,,SCT050,0.00,719.00,VWS V14.01,2013-03-31 20:29:00,
2013-03-31 15:34:00,38.6,20.6,29.77,WNW,288,17.0,22.0,48,0.00,,SCT050,0.00,740.00,VWS V14.01,2013-03-31 20:34:00,
2013-03-31 15:39:00,38.3,19.4,29.78,NNW,348,2.0,24.0,46,0.00,,SCT050,0.00,645.00,VWS V14.01,2013-03-31 20:39:00,
2013-03-31 15:44:00,38.8,19.8,29.78,NW,323,14.0,24.0,46,0.00,,SCT050,0.00,717.00,VWS V14.01,2013-03-31 20:44:00,
2013-03-31 15:49:00,38.2,18.2,29.78,WNW,293,15.0,24.0,44,0.00,,SCT050,0.00,715.00,VWS V14.01,2013-03-31 20:49:00,
2013-03-31 15:54:00,37.9,19.5,29.78,NW,311,7.0,24.0,47,0.00,,SCT050,0.00,664.00,VWS V14.01,2013-03-31 20:54:00,
2013-03-31 15:59:00,38.4,17.9,29.78,NW,304,18.0,24.0,43,0.00,,SCT050,0.00,638.00,VWS V14.01,2013-03-31 20:59:00,
2013-03-31 16:04:00,38.0,17.5,29.78,NW,325,12.0,23.0,43,0.00,,SCT060,0.00,626.00,VWS V14.01,2013-03-31 21:04:00,
2013-03-31 16:10:00,38.2,18.8,29.79,North,355,9.0,23.0,45,0.00,,SCT060,0.00,617.00,VWS V14.01,2013-03-31 21:10:00,
2013-03-31 16:15:00,38.3,17.8,29.79,NNW,337,8.0,23.0,43,0.00,,SCT060,0.00,598.00,VWS V14.01,2013-03-31 21:15:00,
2013-03-31 16:20:00,38.6,17.5,29.79,North,349,7.0,23.0,42,0.00,,SCT060,0.00,585.00,VWS V14.01,2013-03-31 21:20:00,
2013-03-31 16:25:00,38.0,17.5,29.80,NNW,341,10.0,23.0,43,0.00,,SCT060,0.00,608.00,VWS V14.01,2013-03-31 21:25:00,
2013-03-31 16:30:00,37.5,17.6,29.80,NW,321,11.0,11.0,44,0.00,,SCT060,0.00,601.00,VWS V14.01,2013-03-31 21:30:00,
2013-03-31 16:35:00,37.1,17.2,29.80,NNW,337,11.0,21.0,44,0.00,,SCT060,0.00,125.00,VWS V14.01,2013-03-31 21:35:00,
2013-03-31 16:40:00,37.1,17.7,29.80,NW,319,16.0,21.0,45,0.00,,SCT060,0.00,207.00,VWS V14.01,2013-03-31 21:40:00,
2013-03-31 16:45:00,37.4,17.5,29.80,NW,306,12.0,21.0,44,0.00,,SCT060,0.00,587.00,VWS V14.01,2013-03-31 21:45:00,
2013-03-31 16:50:00,37.5,18.1,29.80,NNW,340,7.0,21.0,45,0.00,,SCT060,0.00,522.00,VWS V14.01,2013-03-31 21:50:00,
2013-03-31 16:55:00,37.8,17.3,29.80,North,355,7.0,21.0,43,0.00,,SCT060,0.00,517.00,VWS V14.01,2013-03-31 21:55:00,
2013-03-31 17:00:00,38.1,17.6,29.81,NW,317,10.0,10.0,43,0.00,,SCT060,0.00,497.00,VWS V14.01,2013-03-31 22:00:00,
2013-03-31 17:05:00,38.0,16.4,29.80,NW,313,14.0,19.0,41,0.00,,SCT060,0.00,485.00,VWS V14.01,2013-03-31 22:05:00,
2013-03-31 17:10:00,37.5,16.5,29.81,NW,305,12.0,19.0,42,0.00,,SCT060,0.00,457.00,VWS V14.01,2013-03-31 22:10:00,
2013-03-31 17:15:00,37.6,18.2,29.81,NW,326,13.0,20.0,45,0.00,,SCT060,0.00,497.00,VWS V14.01,2013-03-31 22:15:00,
2013-03-31 17:20:00,37.7,17.8,29.81,NNW,339,5.0,20.0,44,0.00,,SCT060,0.00,461.00,VWS V14.01,2013-03-31 22:20:00,
2013-03-31 17:25:00,37.7,18.8,29.81,NNW,342,6.0,20.0,46,0.00,,SCT060,0.00,165.00,VWS V14.01,2013-03-31 22:25:00,
2013-03-31 17:30:00,37.3,16.9,29.81,NNW,343,8.0,13.0,43,0.00,,SCT060,0.00,443.00,VWS V14.01,2013-03-31 22:30:00,
2013-03-31 17:35:00,37.5,17.0,29.81,NNE,22,6.0,15.0,43,0.00,,SCT060,0.00,371.00,VWS V14.01,2013-03-31 22:35:00,
2013-03-31 17:40:00,37.6,17.7,29.82,NNW,340,8.0,15.0,44,0.00,,SCT060,0.00,399.00,VWS V14.01,2013-03-31 22:40:00,
2013-03-31 17:45:00,37.6,16.6,29.82,NE,36,7.0,16.0,42,0.00,,SCT060,0.00,388.00,VWS V14.01,2013-03-31 22:45:00,
2013-03-31 17:50:00,37.8,17.3,29.82,NW,310,7.0,16.0,43,0.00,,SCT060,0.00,396.00,VWS V14.01,2013-03-31 22:50:00,
2013-03-31 17:55:00,37.8,17.3,29.82,NW,320,10.0,16.0,43,0.00,,SCT060,0.00,364.00,VWS V14.01,2013-03-31 22:55:00,
2013-03-31 18:00:00,37.1,17.2,29.83,WNW,302,13.0,16.0,44,0.00,,SCT060,0.00,306.00,VWS V14.01,2013-03-31 23:00:00,
2013-03-31 18:05:00,36.4,17.1,29.83,NW,325,20.0,21.0,45,0.00,,FEW060,0.00,86.00,VWS V14.01,2013-03-31 23:05:00,
2013-03-31 18:10:00,36.0,16.7,29.83,WNW,300,8.0,21.0,45,0.00,,FEW060,0.00,190.00,VWS V14.01,2013-03-31 23:10:00,
2013-03-31 18:15:00,36.1,17.8,29.83,NW,321,6.0,21.0,47,0.00,,FEW060,0.00,237.00,VWS V14.01,2013-03-31 23:15:00,
2013-03-31 18:20:00,36.0,17.2,29.83,WNW,295,10.0,21.0,46,0.00,,FEW060,0.00,209.00,VWS V14.01,2013-03-31 23:20:00,
2013-03-31 18:25:00,35.7,17.0,29.84,West,280,10.0,21.0,46,0.00,,FEW060,0.00,218.00,VWS V14.01,2013-03-31 23:25:00,
2013-03-31 18:30:00,35.1,16.4,29.84,NW,317,10.0,11.0,46,0.00,,FEW060,0.00,69.00,VWS V14.01,2013-03-31 23:30:00,
2013-03-31 18:35:00,34.8,15.6,29.84,NNW,346,4.0,15.0,45,0.00,,FEW060,0.00,47.00,VWS V14.01,2013-03-31 23:35:00,
2013-03-31 18:40:00,34.6,16.5,29.84,NW,308,9.0,17.0,47,0.00,,FEW060,0.00,102.00,VWS V14.01,2013-03-31 23:40:00,
2013-03-31 18:45:00,34.6,16.5,29.85,WNW,300,12.0,21.0,47,0.00,,FEW060,0.00,107.00,VWS V14.01,2013-03-31 23:45:00,
2013-03-31 18:50:00,34.8,17.1,29.85,NW,317,11.0,21.0,48,0.00,,FEW060,0.00,105.00,VWS V14.01,2013-03-31 23:50:00,
2013-03-31 18:55:00,34.8,16.6,29.85,North,349,7.0,21.0,47,0.00,,FEW060,0.00,90.00,VWS V14.01,2013-03-31 23:55:00,
2013-03-31 19:00:00,34.7,17.0,29.86,NW,314,12.0,15.0,48,0.00,,FEW060,0.00,63.00,VWS V14.01,2013-04-01 00:00:00,
2013-03-31 19:05:00,34.5,16.9,29.86,North,360,6.0,15.0,48,0.00,,FEW060,0.00,58.00,VWS V14.01,2013-04-01 00:05:00,
2013-03-31 19:10:00,34.4,16.3,29.86,NW,325,8.0,15.0,47,0.00,,FEW060,0.00,46.00,VWS V14.01,2013-04-01 00:10:00,
2013-03-31 19:15:00,34.0,16.9,29.86,NNW,329,10.0,15.0,49,0.00,,FEW060,0.00,14.00,VWS V14.01,2013-04-01 00:15:00,
2013-03-31 19:20:00,33.7,16.6,29.87,NNW,338,8.0,15.0,49,0.00,,FEW060,0.00,18.00,VWS V14.01,2013-04-01 00:20:00,
2013-03-31 19:25:00,33.5,16.4,29.87,NNW,342,7.0,15.0,49,0.00,,FEW060,0.00,11.00,VWS V14.01,2013-04-01 00:25:00,
2013-03-31 19:30:00,33.4,15.8,29.87,NW,321,6.0,9.0,48,0.00,,FEW060,0.00,5.00,VWS V14.01,2013-04-01 00:30:00,
2013-03-31 19:35:00,33.2,16.1,29.87,WNW,294,9.0,15.0,49,0.00,,FEW060,0.00,0.00,VWS V14.01,2013-04-01 00:35:00,
2013-03-31 19:40:00,33.1,16.0,29.88,NNW,329,6.0,19.0,49,0.00,,FEW060,0.00,0.00,VWS V14.01,2013-04-01 00:40:00,
2013-03-31 19:45:00,33.0,15.9,29.88,WNW,303,8.0,19.0,49,0.00,,FEW060,0.00,0.00,VWS V14.01,2013-04-01 00:45:00,
2013-03-31 19:50:00,32.8,16.7,29.88,WNW,296,14.0,19.0,51,0.00,,FEW060,0.00,0.00,VWS V14.01,2013-04-01 00:50:00,
2013-03-31 19:55:00,32.8,15.8,29.88,North,349,9.0,19.0,49,0.00,,FEW060,0.00,0.00,VWS V14.01,2013-04-01 00:55:00,
2013-03-31 20:00:00,32.6,16.0,29.89,NW,320,9.0,10.0,50,0.00,,SCT050,0.00,0.00,VWS V14.01,2013-04-01 01:00:00,
2013-03-31 20:05:00,32.5,15.9,29.89,NNW,347,8.0,16.0,50,0.00,,SCT050,0.00,0.00,VWS V14.01,2013-04-01 01:05:00,
2013-03-31 20:10:00,32.2,16.1,29.89,NW,317,7.0,16.0,51,0.00,,SCT050,0.00,0.00,VWS V14.01,2013-04-01 01:10:00,
2013-03-31 20:15:00,32.1,16.5,29.89,NW,316,4.0,16.0,52,0.00,,SCT050,0.00,0.00,VWS V14.01,2013-04-01 01:15:00,
2013-03-31 20:20:00,32.0,15.9,29.90,NW,321,7.0,16.0,51,0.00,,SCT050,0.00,0.00,VWS V14.01,2013-04-01 01:20:00,
2013-03-31 20:25:00,31.7,16.1,29.90,NW,321,6.0,16.0,52,0.00,,SCT050,0.00,0.00,VWS V14.01,2013-04-01 01:25:00,
2013-03-31 20:30:00,31.5,16.8,29.90,NW,323,6.0,6.0,54,0.00,,SCT050,0.00,0.00,VWS V14.01,2013-04-01 01:30:00,
2013-03-31 20:35:00,31.2,16.1,29.90,NW,323,7.0,14.0,53,0.00,,SCT050,0.00,0.00,VWS V14.01,2013-04-01 01:35:00,
2013-03-31 20:40:00,31.1,16.0,29.91,NW,319,9.0,14.0,53,0.00,,SCT050,0.00,0.00,VWS V14.01,2013-04-01 01:40:00,
2013-03-31 20:45:00,31.0,16.7,29.91,NNW,327,5.0,14.0,55,0.00,,SCT050,0.00,0.00,VWS V14.01,2013-04-01 01:45:00,
2013-03-31 20:50:00,30.8,16.1,29.91,WNW,292,8.0,14.0,54,0.00,,SCT050,0.00,0.00,VWS V14.01,2013-04-01 01:50:00,
2013-03-31 20:55:00,30.6,16.4,29.92,NW,304,3.0,14.0,55,0.00,,SCT050,0.00,0.00,VWS V14.01,2013-04-01 01:55:00,
2013-03-31 21:00:00,30.5,16.3,29.92,NW,322,8.0,9.0,55,0.00,,CLR,0.00,0.00,VWS V14.01,2013-04-01 02:00:00,
2013-03-31 21:05:00,30.4,16.6,29.92,NW,310,15.0,15.0,56,0.00,,CLR,0.00,0.00,VWS V14.01,2013-04-01 02:05:00,
2013-03-31 21:10:00,30.3,16.1,29.92,NNW,345,5.0,15.0,55,0.00,,CLR,0.00,0.00,VWS V14.01,2013-04-01 02:10:00,
2013-03-31 21:15:00,30.2,16.0,29.92,NW,319,7.0,15.0,55,0.00,,CLR,0.00,0.00,VWS V14.01,2013-04-01 02:15:00,
2013-03-31 21:20:00,30.2,16.0,29.92,NW,326,6.0,15.0,55,0.00,,CLR,0.00,0.00,VWS V14.01,2013-04-01 02:20:00,
2013-03-31 21:25:00,30.1,15.5,29.93,NNW,339,6.0,17.0,54,0.00,,CLR,0.00,0.00,VWS V14.01,2013-04-01 02:25:00,
2013-03-31 21:31:00,30.0,15.4,29.93,North,355,4.0,18.0,54,0.00,,CLR,0.00,0.00,VWS V14.01,2013-04-01 02:31:00,
2013-03-31 21:36:00,29.9,15.7,29.93,NNW,329,5.0,19.0,55,0.00,,CLR,0.00,0.00,VWS V14.01,2013-04-01 02:36:00,
2013-03-31 21:41:00,29.7,15.5,29.94,NW,321,9.0,19.0,55,0.00,,CLR,0.00,0.00,VWS V14.01,2013-04-01 02:41:00,
2013-03-31 21:46:00,29.6,15.4,29.94,NW,304,7.0,19.0,55,0.00,,CLR,0.00,0.00,VWS V14.01,2013-04-01 02:46:00,
2013-03-31 21:51:00,29.4,15.2,29.94,NNW,333,6.0,19.0,55,0.00,,CLR,0.00,0.00,VWS V14.01,2013-04-01 02:51:00,
2013-03-31 21:56:00,29.3,16.0,29.94,NNW,347,5.0,19.0,57,0.00,,CLR,0.00,0.00,VWS V14.01,2013-04-01 02:56:00,
2013-03-31 22:01:00,29.0,15.7,29.94,North,355,7.0,10.0,57,0.00,,CLR,0.00,0.00,VWS V14.01,2013-04-01 03:01:00,
2013-03-31 22:06:00,29.0,15.3,29.95,NNW,327,13.0,13.0,56,0.00,,CLR,0.00,0.00,VWS V14.01,2013-04-01 03:06:00,
2013-03-31 22:11:00,28.9,15.2,29.95,NW,319,7.0,13.0,56,0.00,,CLR,0.00,0.00,VWS V14.01,2013-04-01 03:11:00,
2013-03-31 22:16:00,28.8,15.5,29.95,WNW,301,10.0,13.0,57,0.00,,CLR,0.00,0.00,VWS V14.01,2013-04-01 03:16:00,
2013-03-31 22:21:00,28.6,15.3,29.95,NW,307,7.0,13.0,57,0.00,,CLR,0.00,0.00,VWS V14.01,2013-04-01 03:21:00,
2013-03-31 22:26:00,28.4,15.5,29.96,NW,317,7.0,13.0,58,0.00,,CLR,0.00,0.00,VWS V14.01,2013-04-01 03:26:00,
2013-03-31 22:31:00,28.2,15.7,29.96,NW,323,2.0,5.0,59,0.00,,CLR,0.00,0.00,VWS V14.01,2013-04-01 03:31:00,
2013-03-31 22:36:00,28.1,15.2,29.96,North,355,6.0,14.0,58,0.00,,CLR,0.00,0.00,VWS V14.01,2013-04-01 03:36:00,
2013-03-31 22:41:00,28.0,15.1,29.96,North,355,1.0,14.0,58,0.00,,CLR,0.00,0.00,VWS V14.01,2013-04-01 03:41:00,
2013-03-31 22:46:00,27.9,15.4,29.96,NW,316,5.0,14.0,59,0.00,,CLR,0.00,0.00,VWS V14.01,2013-04-01 03:46:00,
2013-03-31 22:51:00,27.7,15.3,29.96,NNW,331,6.0,14.0,59,0.00,,CLR,0.00,0.00,VWS V14.01,2013-04-01 03:51:00,
2013-03-31 22:56:00,27.6,15.2,29.96,NW,309,7.0,14.0,59,0.00,,CLR,0.00,0.00,VWS V14.01,2013-04-01 03:56:00,
2013-03-31 23:00:00,27.6,15.6,29.97,NNW,327,2.0,3.0,60,0.00,,CLR,0.00,0.00,VWS V14.01,2013-04-01 04:00:00,
2013-03-31 23:05:00,27.4,15.4,29.97,NW,304,4.0,7.0,60,0.00,,CLR,0.00,0.00,VWS V14.01,2013-04-01 04:05:00,
2013-03-31 23:10:00,27.2,15.6,29.97,NNW,333,4.0,8.0,61,0.00,,CLR,0.00,0.00,VWS V14.01,2013-04-01 04:10:00,
2013-03-31 23:12:00,27.2,15.6,29.97,NW,315,2.0,8.0,61,0.00,,CLR,0.00,0.00,VWS V14.01,2013-04-01 04:12:00,
2013-03-31 23:17:00,27.1,15.4,29.97,NW,323,2.0,10.0,61,0.00,,CLR,0.00,0.00,VWS V14.01,2013-04-01 04:17:00,
2013-03-31 23:22:00,27.0,15.4,29.97,NW,317,4.0,10.0,61,0.00,,CLR,0.00,0.00,VWS V14.01,2013-04-01 04:22:00,
2013-03-31 23:27:00,26.8,15.5,29.98,NW,324,2.0,10.0,62,0.00,,CLR,0.00,0.00,VWS V14.01,2013-04-01 04:27:00,
2013-03-31 23:32:00,26.7,15.4,29.98,NW,323,5.0,6.0,62,0.00,,CLR,0.00,0.00,VWS V14.01,2013-04-01 04:32:00,
2013-03-31 23:37:00,26.6,15.7,29.98,NNW,331,3.0,8.0,63,0.00,,CLR,0.00,0.00,VWS V14.01,2013-04-01 04:37:00,
2013-03-31 23:42:00,26.6,15.7,29.98,NNW,338,3.0,8.0,63,0.00,,CLR,0.00,0.00,VWS V14.01,2013-04-01 04:42:00,
2013-03-31 23:47:00,26.6,15.7,29.98,NW,321,5.0,8.0,63,0.00,,CLR,0.00,0.00,VWS V14.01,2013-04-01 04:47:00,
2013-03-31 23:52:00,26.7,16.2,29.98,NW,310,0.0,8.0,64,0.00,,CLR,0.00,0.00,VWS V14.01,2013-04-01 04:52:00,
2013-03-31 23:57:00,26.7,16.2,29.99,NNW,339,1.0,8.0,64,0.00,,CLR,0.00,0.00,VWS V14.01,2013-04-01 04:57:00,